[[{"header":{"parameterUnit":"m.s-1","parameterCategory":1,"la1":30.2991,"la2":30.254,"lo1":-89.0895,"lo2":-89.0444,"dy":0.0017,"dx":0.0017,"nx":28,"ny":28,"refTime":"2024-08-26T03:00:00:Z","depth":0,"parameterNumber":2,"parameterNumberName":"U-component_of_WINDS"},"data":[0,0,0,0,0,0,0,0,0,0,0,0,0,0,0,0,0,0,0,0,0,0,0,0,0,0,0,0,0,0,0,0,0,0,0,0,0,0,0,0,0,0,0,0,0,0,0,0,0,0,0,0,0,0,0,0,0,0,-2.6399,-2.64,0,-2.6498,-2.6499,-2.65,-2.65,-2.6499,-2.6498,-2.6497,-2.6597,-2.66,-2.6604,0,0,0,0,0,0,0,0,0,0,0,0,0,-2.621,-2.6214,-2.6399,-2.64,-2.6401,-2.6497,-2.6499,-2.65,-2.6501,-2.6499,-2.6498,-2.6496,-2.6595,-2.66,-2.6605,0,0,0,0,0,0,0,0,0,0,0,0,0,-2.6299,-2.6215,-2.6399,-2.6413,-2.6415,-2.6497,-2.6499,-2.65,-2.6501,-2.6499,-2.6497,-2.6495,-2.6594,-2.66,-2.6605,-2.6679,0,0,-2.6623,-2.6625,0,0,0,0,0,0,0,0,-2.6294,-2.6306,-2.641,-2.6412,-2.6415,-2.6485,-2.6469,-2.656,-2.6501,-2.6468,-2.6497,-2.6494,-2.6561,-2.6569,-2.6592,-2.6683,-2.6688,-2.6623,-2.6627,-2.6629,-2.6631,0,0,0,0,0,0,0,-2.6288,-2.6302,-2.6438,-2.6411,-2.6414,-2.6415,-2.6425,-2.6486,-2.6524,-2.6471,-2.6471,-2.6483,-2.6562,-2.6586,-2.6594,-2.6689,-2.6623,-2.6628,-2.6632,-2.6634,-2.6846,-2.6848,0,0,0,0,0,0,-2.6279,-2.6297,-2.6435,-2.6441,-2.6349,-2.642,-2.6431,-2.6464,-2.6523,-2.6531,-2.6485,-2.6483,-2.6577,-2.6588,-2.6598,-2.6688,-2.6629,-2.6635,-2.6638,-2.6844,-2.6847,-2.6849,0,0,0,0,0,0,-2.6275,-2.6291,-2.6431,-2.6369,-2.6387,-2.6425,-2.6462,-2.6467,-2.6492,-2.6534,-2.654,-2.6503,-2.6576,-2.659,-2.6659,-2.6691,-2.6637,-2.6643,-2.6842,-2.6845,-2.6848,-2.6868,0,0,0,0,0,0,-2.6269,-2.629,-2.6318,-2.6369,-2.639,-2.649,-2.6464,-2.647,-2.6502,-2.65,-2.6552,-2.6559,-2.6576,-2.665,-2.6664,-2.6698,-2.6647,-2.6839,-2.6843,-2.6847,-2.6864,-2.6871,-2.6877,0,0,0,0,0,-2.6263,-2.6319,-2.6319,-2.6336,-2.6426,-2.6492,-2.6504,-2.6522,-2.6504,-2.6533,-2.656,-2.6557,-2.6686,-2.6657,-2.6673,-2.6709,-2.6837,-2.6842,-2.6847,-2.6861,-2.687,-2.6877,0,0,0,0,0,0,-2.627,-2.6326,-2.6327,-2.6402,-2.6442,-2.6492,-2.6528,-2.653,-2.6576,-2.6573,-2.6594,-2.6606,-2.6674,-2.6699,-2.6666,-2.6784,-2.6759,-2.6767,-2.6765,-2.6773,-2.6779,-2.6772,-2.6652,0,0,0,0,0,-2.628,-2.6329,-2.6376,-2.6437,-2.6458,-2.649,-2.6519,-2.653,-2.6572,-2.6589,-2.6622,-2.6663,-2.6712,-2.6744,-2.6792,-2.6869,-2.688,-2.6901,-2.6908,-2.6913,-2.6919,-2.6962,-2.6972,-2.6865,-2.6865,-2.6865,0,0,-2.6302,-2.6339,-2.6368,-2.644,-2.6472,-2.6522,-2.6504,-2.6557,-2.6595,-2.6597,-2.6664,-2.669,-2.6737,-2.681,-2.6844,-2.6833,-2.6952,-2.6919,-2.6923,-2.6927,-2.6968,-2.6978,-2.6987,-2.6869,-2.6868,-2.6868,0,0,-2.6366,-2.64,-2.6455,-2.6488,-2.6538,-2.6559,-2.6572,-2.6622,-2.6639,-2.6707,-2.671,-2.6755,-2.684,-2.6874,-2.6902,-2.6981,-2.6981,-2.6997,-2.703,-2.7071,-2.7079,-2.7087,-2.7114,-2.7124,-2.7003,-2.7003,-2.7003,0,-2.6387,-2.6463,-2.6482,-2.6537,-2.6568,-2.6574,-2.6629,-2.6661,-2.6724,-2.6745,-2.6732,-2.6839,-2.6872,-2.6953,-2.6972,-2.6995,-2.7011,-2.699,-2.7076,-2.7084,-2.7091,-2.7118,-2.7129,-2.7005,-2.7005,-2.7005,-2.7004,0,-2.6485,-2.6538,-2.6576,-2.6637,-2.6673,-2.6728,-2.6756,-2.679,-2.6799,-2.6821,-2.6891,-2.693,-2.6986,-2.7006,-2.7015,-2.7089,-2.7081,-2.7072,-2.7047,-2.7103,-2.7128,-2.7139,-2.7007,-2.7007,-2.7006,-2.7006,0,0,-2.6555,-2.6628,-2.6641,-2.6669,-2.6725,-2.6766,-2.6822,-2.6877,-2.6906,-2.695,-2.6996,-2.7069,-2.7061,-2.7094,-2.7106,-2.7142,-2.7203,-2.7129,-2.7131,-2.7141,-2.7287,-2.7292,-2.7304,-2.7203,-2.7205,-2.7207,-2.7282,0,-2.6626,-2.6724,-2.6744,-2.6829,-2.6878,-2.6885,-2.6933,-2.6973,-2.6996,-2.7041,-2.7066,-2.7117,-2.7104,-2.7123,-2.7159,-2.7187,-2.7232,-2.7182,-2.7246,-2.7248,-2.7233,-2.7317,-2.7323,-2.7392,-2.7293,-2.7294,-2.7295,0,-2.672,-2.6767,-2.6857,-2.6907,-2.6928,-2.6971,-2.7024,-2.7067,-2.7112,-2.7126,-2.7163,-2.7172,-2.723,-2.7204,-2.7284,-2.725,-2.7278,-2.7296,-2.7299,-2.7304,-2.7274,-2.7324,-2.7415,-2.7425,-2.7312,-2.731,-2.7309,0,-2.6762,-2.6847,-2.6912,-2.6936,-2.6996,-2.7026,-2.7052,-2.7096,-2.7128,-2.7175,-2.7196,-2.7248,-2.7277,-2.7317,-2.7341,-2.732,-2.7419,-2.7395,-2.7432,-2.7431,-2.7451,-2.745,-2.7547,-2.7471,-2.7471,-2.7471,-2.747,0,-2.6837,-2.6892,-2.6931,-2.6971,-2.7032,-2.7056,-2.7116,-2.7142,-2.7181,-2.7226,-2.7236,-2.7278,-2.7307,-2.7353,-2.7371,-2.7435,-2.7448,-2.7461,-2.7465,-2.746,-2.7458,-2.7477,-2.7472,-2.7473,-2.7473,-2.7472,-2.7472,0,-2.6893,-2.6922,-2.6993,-2.7045,-2.7059,-2.7102,-2.7146,-2.7185,-2.7209,-2.7266,-2.7281,-2.7318,-2.7374,-2.7401,-2.7469,-2.7482,-2.7554,-2.7555,-2.7538,-2.7539,-2.7575,-2.7571,-2.7687,-2.7703,-2.7617,-2.7618,-2.7619,0,-2.6939,-2.6981,-2.7038,-2.7069,-2.7096,-2.7146,-2.718,-2.7204,-2.7239,-2.7294,-2.7327,-2.7382,-2.7428,-2.7516,-2.7549,-2.7602,-2.7604,-2.7641,-2.7612,-2.7605,-2.7604,-2.7601,-2.7605,-2.7646,-2.7647,-2.7647,-2.7648,0,-2.7017,-2.703,-2.7077,-2.713,-2.717,-2.7213,-2.7255,-2.728,-2.7311,-2.735,-2.7406,-2.7442,-2.7512,-2.7567,-2.7623,-2.765,-2.7654,-2.7657,-2.7668,-2.7663,-2.7651,-2.7657,-2.7551,-2.7654,-2.7653,-2.7653,-2.7653,-2.7652,-2.7069,-2.7107,-2.7153,-2.7206,-2.7241,-2.728,-2.7319,-2.7349,-2.7396,-2.7456,-2.7468,-2.7528,-2.7573,-2.7648,-2.7677,-2.7724,-2.7716,-2.7733,-2.7737,-2.774,-2.7742,-2.7644,-2.7735,-2.7735,-2.7735,-2.7734,-2.7734,0,-2.7148,-2.7178,-2.7226,-2.7285,-2.7327,-2.7328,-2.7375,-2.741,-2.7463,-2.7505,-2.755,-2.7615,-2.7669,-2.7707,-2.7762,-2.7793,-2.7796,-2.7806,-2.7804,-2.781,-2.7746,-2.773,-2.7803,-2.7803,-2.7803,-2.7803,-2.7803,-2.7803,-2.7193,-2.7257,-2.7275,-2.7357,-2.7387,-2.7446,-2.7473,-2.7509,-2.7543,-2.7615,-2.766,-2.7685,-2.7726,-2.7784,-2.7833,-2.7843,-2.7863,-2.7873,-2.7882,-2.7822,-2.7814,-2.7808,-2.7793,-2.7877,-2.7877,-2.7942,-2.7943,-2.7943]},{"header":{"parameterUnit":"m.s-1","parameterCategory":1,"la1":30.2991,"la2":30.254,"lo1":-89.0895,"lo2":-89.0444,"dy":0.0017,"dx":0.0017,"nx":28,"ny":28,"refTime":"2024-08-26T03:00:00:Z","depth":0,"parameterNumber":3,"parameterNumberName":"V-component_of_WINDS"},"data":[0,0,0,0,0,0,0,0,0,0,0,0,0,0,0,0,0,0,0,0,0,0,0,0,0,0,0,0,0,0,0,0,0,0,0,0,0,0,0,0,0,0,0,0,0,0,0,0,0,0,0,0,0,0,0,0,0,0,2.8877,2.8877,0,2.8857,2.8856,2.8856,2.8829,2.8828,2.8828,2.8827,2.8805,2.8805,2.8805,0,0,0,0,0,0,0,0,0,0,0,0,0,2.8893,2.8893,2.8877,2.8877,2.8877,2.8857,2.8856,2.8856,2.8829,2.8828,2.8828,2.8827,2.8805,2.8805,2.8805,0,0,0,0,0,0,0,0,0,0,0,0,0,2.8881,2.8893,2.8877,2.8861,2.8859,2.8857,2.8856,2.8856,2.8829,2.8828,2.8828,2.8827,2.8805,2.8805,2.8805,2.8817,0,0,2.8804,2.8804,0,0,0,0,0,0,0,0,2.8881,2.888,2.8864,2.8862,2.886,2.8845,2.8854,2.8843,2.8829,2.884,2.8827,2.8827,2.8819,2.8817,2.8815,2.8816,2.8815,2.8804,2.8804,2.8804,2.8804,0,0,0,0,0,0,0,2.8882,2.8881,2.8869,2.8863,2.8861,2.8854,2.8852,2.8851,2.8834,2.8839,2.8837,2.8835,2.8818,2.8815,2.8814,2.8814,2.8804,2.8804,2.8804,2.8803,2.8823,2.8824,0,0,0,0,0,0,2.8886,2.8882,2.887,2.8868,2.8869,2.8855,2.8852,2.885,2.8833,2.883,2.8836,2.8834,2.8816,2.8814,2.8813,2.8825,2.8804,2.8803,2.8803,2.8822,2.8823,2.8824,0,0,0,0,0,0,2.8886,2.8885,2.8871,2.8875,2.8872,2.8855,2.8853,2.885,2.8848,2.8831,2.8827,2.8837,2.8815,2.8814,2.8816,2.8824,2.8803,2.8803,2.8821,2.8822,2.8823,2.8849,0,0,0,0,0,0,2.8887,2.8885,2.8889,2.8875,2.8872,2.8874,2.8854,2.885,2.8847,2.8845,2.8831,2.8828,2.8815,2.8816,2.8816,2.8823,2.8803,2.8821,2.8822,2.8823,2.8847,2.8851,2.8854,0,0,0,0,0,2.8887,2.8897,2.889,2.8889,2.8877,2.8874,2.8873,2.8858,2.8848,2.8852,2.8841,2.8828,2.8824,2.8817,2.8816,2.8823,2.882,2.8821,2.8823,2.8846,2.885,2.8854,0,0,0,0,0,0,2.8913,2.8895,2.8886,2.8892,2.8885,2.887,2.8874,2.8863,2.8858,2.8856,2.8837,2.8834,2.8839,2.8831,2.8824,2.8834,2.882,2.8821,2.8838,2.8842,2.8845,2.8846,2.8803,0,0,0,0,0,2.892,2.8919,2.8903,2.891,2.8907,2.8891,2.8889,2.8879,2.887,2.8867,2.8856,2.8849,2.8845,2.8843,2.8839,2.8847,2.8843,2.8852,2.8855,2.8858,2.8858,2.8861,2.8864,2.8829,2.8829,2.8829,0,0,2.8932,2.8923,2.8923,2.8915,2.8908,2.8907,2.8889,2.8889,2.8888,2.8867,2.8868,2.886,2.885,2.8855,2.8857,2.8849,2.8868,2.886,2.8862,2.8861,2.8863,2.8866,2.8869,2.883,2.883,2.8829,0,0,2.8955,2.8949,2.8953,2.8947,2.8937,2.8926,2.8928,2.8914,2.8908,2.8909,2.8893,2.8892,2.8887,2.888,2.8876,2.8898,2.8885,2.8897,2.8913,2.8916,2.8919,2.8921,2.8928,2.893,2.8899,2.8899,2.8899,0,2.8972,2.8971,2.8956,2.8957,2.8954,2.8936,2.894,2.8934,2.8924,2.8921,2.8914,2.8907,2.8899,2.8901,2.8907,2.8905,2.8905,2.8898,2.892,2.8922,2.8924,2.893,2.8932,2.89,2.89,2.89,2.89,0,2.8992,2.8991,2.8996,2.8986,2.8984,2.8986,2.8972,2.8971,2.8961,2.8952,2.8953,2.8943,2.8936,2.8937,2.8927,2.8938,2.8933,2.8923,2.8908,2.8929,2.8934,2.8936,2.8902,2.8902,2.8901,2.8901,0,0,2.9029,2.9012,2.9013,2.9009,2.8997,2.8996,2.8998,2.8992,2.8991,2.8985,2.8985,2.8982,2.8972,2.8968,2.8957,2.896,2.8976,2.8949,2.8949,2.8953,2.8986,2.8993,2.8996,2.8969,2.8969,2.8969,2.8987,0,2.9048,2.905,2.9037,2.9043,2.9041,2.9025,2.9026,2.9019,2.9011,2.9009,2.8999,2.8997,2.8985,2.8982,2.8984,2.8974,2.8982,2.8973,2.8968,2.8968,2.8969,2.8999,2.9006,2.9023,2.8989,2.8989,2.8989,0,2.907,2.9065,2.9071,2.9059,2.9058,2.9059,2.9053,2.9051,2.9043,2.9036,2.9032,2.902,2.9021,2.9009,2.9009,2.9002,2.9,2.8995,2.8995,2.8992,2.8978,2.8995,2.9028,2.903,2.8993,2.8992,2.8992,0,2.9095,2.909,2.9092,2.9089,2.9075,2.9076,2.9071,2.9062,2.9059,2.9054,2.9051,2.9046,2.9043,2.9039,2.9026,2.9019,2.9027,2.9014,2.9021,2.9022,2.9022,2.9022,2.9053,2.9024,2.9024,2.9024,2.9024,0,2.9116,2.912,2.9102,2.9104,2.9107,2.9093,2.9097,2.909,2.9082,2.9081,2.9067,2.9067,2.905,2.9048,2.9038,2.9039,2.9038,2.9032,2.9029,2.9033,2.9033,2.9029,2.9027,2.9024,2.9024,2.9024,2.9024,0,2.9143,2.9132,2.9133,2.9121,2.9118,2.912,2.9109,2.911,2.9101,2.9101,2.91,2.9086,2.9082,2.907,2.9063,2.9056,2.906,2.9056,2.9063,2.9061,2.9068,2.9067,2.9096,2.9098,2.9069,2.907,2.907,0,2.9157,2.9159,2.9147,2.9146,2.9141,2.9139,2.9136,2.9123,2.9121,2.9112,2.9113,2.9109,2.9104,2.91,2.9089,2.9084,2.9078,2.9088,2.9077,2.908,2.9076,2.9075,2.9075,2.909,2.909,2.9091,2.9091,0,2.9182,2.9176,2.9173,2.9168,2.9166,2.9161,2.9155,2.9155,2.914,2.9138,2.9135,2.9132,2.9125,2.9121,2.9114,2.9108,2.9097,2.9095,2.9096,2.9099,2.9102,2.9099,2.9068,2.9094,2.9094,2.9094,2.9093,2.9093,2.9201,2.9203,2.9194,2.9191,2.9186,2.9181,2.9181,2.9173,2.917,2.9164,2.9156,2.9153,2.9145,2.9135,2.913,2.9127,2.9121,2.9123,2.9123,2.9123,2.9125,2.9104,2.9126,2.9126,2.9126,2.9126,2.9126,0,2.9225,2.9219,2.9216,2.9209,2.9207,2.9198,2.9191,2.919,2.9188,2.9181,2.9178,2.9173,2.9169,2.9159,2.9153,2.9153,2.9148,2.9152,2.9151,2.9149,2.9131,2.913,2.9156,2.9156,2.9156,2.9156,2.9156,2.9156,2.9236,2.9237,2.9231,2.9229,2.9224,2.9221,2.9218,2.9214,2.9208,2.9204,2.9201,2.9195,2.9186,2.918,2.9176,2.9173,2.9171,2.9176,2.9171,2.9154,2.9151,2.9148,2.9147,2.9176,2.9176,2.919,2.919,2.919]}]]